Time,TemperatureF,DewpointF,PressureIn,WindDirection,WindDirectionDegrees,WindSpeedMPH,WindSpeedGustMPH,Humidity,HourlyPrecipIn,Conditions,Clouds,dailyrainin,SoftwareType,DateUTC
2013-12-31 00:02:00,-3.0,-5.0,-100.00,WNW,295,1.0,3.0,91,0.00,,,-99.99,,2013-12-31 06:02:00,
2013-12-31 00:43:00,-2.0,-4.0,-100.00,West,270,2.0,6.0,91,0.00,,,-99.99,,2013-12-31 06:43:00,
2013-12-31 00:52:00,-2.0,-4.0,-100.00,West,270,2.0,6.0,91,0.00,,,-99.99,,2013-12-31 06:52:00,
2013-12-31 01:02:00,-2.0,-4.0,-100.00,West,270,2.0,6.0,91,0.00,,,-99.99,,2013-12-31 07:02:00,
2013-12-31 01:42:00,-2.0,-4.0,-100.00,WNW,295,2.0,7.0,92,0.00,,,-99.99,,2013-12-31 07:42:00,
2013-12-31 01:52:00,-2.0,-4.0,-100.00,WNW,295,2.0,7.0,92,0.00,,,-99.99,,2013-12-31 07:52:00,
2013-12-31 02:02:00,-2.0,-4.0,-100.00,WNW,295,2.0,7.0,92,0.00,,,-99.99,,2013-12-31 08:02:00,
2013-12-31 02:11:00,-2.0,-4.0,-100.00,WNW,295,2.0,7.0,92,0.00,,,-99.99,,2013-12-31 08:11:00,
2013-12-31 02:42:00,-1.0,-3.0,-100.00,NW,305,2.0,8.0,92,0.00,,,-99.99,,2013-12-31 08:42:00,
2013-12-31 02:52:00,-1.0,-3.0,-100.00,NW,305,2.0,8.0,92,0.00,,,-99.99,,2013-12-31 08:52:00,
2013-12-31 03:02:00,-1.0,-3.0,-100.00,NW,305,2.0,8.0,92,0.00,,,-99.99,,2013-12-31 09:02:00,
2013-12-31 03:43:00,-2.0,-3.0,-100.00,West,265,1.0,4.0,92,0.00,,,-99.99,,2013-12-31 09:43:00,
2013-12-31 03:53:00,-2.0,-3.0,-100.00,West,265,1.0,4.0,92,0.00,,,-99.99,,2013-12-31 09:53:00,
2013-12-31 04:02:00,-2.0,-3.0,-100.00,West,265,1.0,4.0,92,0.00,,,-99.99,,2013-12-31 10:02:00,
2013-12-31 04:43:00,-1.0,-3.0,-100.00,West,260,2.0,4.0,93,0.00,,,-99.99,,2013-12-31 10:43:00,
2013-12-31 04:53:00,-1.0,-3.0,-100.00,West,260,2.0,4.0,93,0.00,,,-99.99,,2013-12-31 10:53:00,
2013-12-31 05:02:00,-1.0,-3.0,-100.00,West,260,2.0,4.0,93,0.00,,,-99.99,,2013-12-31 11:02:00,
2013-12-31 05:43:00,-1.0,-2.0,-100.00,West,280,3.0,7.0,93,0.00,,,-99.99,,2013-12-31 11:43:00,
2013-12-31 05:53:00,-1.0,-2.0,-100.00,West,280,3.0,7.0,93,0.00,,,-99.99,,2013-12-31 11:53:00,
2013-12-31 06:02:00,-1.0,-2.0,-100.00,West,280,3.0,7.0,93,0.00,,,-99.99,,2013-12-31 12:02:00,
2013-12-31 06:10:00,-2.0,-4.0,-100.00,WNW,285,1.0,6.0,93,0.00,,,-99.99,,2013-12-31 12:10:00,
2013-12-31 06:42:00,-2.0,-4.0,-100.00,WNW,285,1.0,6.0,93,0.00,,,-99.99,,2013-12-31 12:42:00,
2013-12-31 06:52:00,-2.0,-4.0,-100.00,WNW,285,1.0,6.0,93,0.00,,,-99.99,,2013-12-31 12:52:00,
2013-12-31 07:02:00,-2.0,-4.0,-100.00,WNW,285,1.0,6.0,93,0.00,,,-99.99,,2013-12-31 13:02:00,
2013-12-31 07:42:00,-4.0,-5.0,-100.00,NW,305,1.0,3.0,93,0.00,,,-99.99,,2013-12-31 13:42:00,
2013-12-31 07:52:00,-4.0,-5.0,-100.00,NW,305,1.0,3.0,93,0.00,,,-99.99,,2013-12-31 13:52:00,
2013-12-31 08:02:00,-4.0,-5.0,-100.00,NW,305,1.0,3.0,93,0.00,,,-99.99,,2013-12-31 14:02:00,
2013-12-31 08:11:00,-3.0,-5.0,-100.00,WNW,290,1.0,6.0,93,0.00,,,-99.99,,2013-12-31 14:11:00,
2013-12-31 08:43:00,-3.0,-5.0,-100.00,WNW,290,1.0,6.0,93,0.00,,,-99.99,,2013-12-31 14:43:00,
2013-12-31 08:53:00,-3.0,-5.0,-100.00,WNW,290,1.0,6.0,93,0.00,,,-99.99,,2013-12-31 14:53:00,
2013-12-31 09:02:00,-3.0,-5.0,-100.00,WNW,290,1.0,6.0,93,0.00,,,-99.99,,2013-12-31 15:02:00,
2013-12-31 09:10:00,-1.0,-3.0,-100.00,West,280,2.0,8.0,93,0.00,,,-99.99,,2013-12-31 15:10:00,
2013-12-31 09:43:00,-1.0,-3.0,-100.00,West,280,2.0,8.0,93,0.00,,,-99.99,,2013-12-31 15:43:00,
2013-12-31 09:53:00,-1.0,-3.0,-100.00,West,280,2.0,8.0,93,0.00,,,-99.99,,2013-12-31 15:53:00,
2013-12-31 10:03:00,-1.0,-3.0,-100.00,West,280,2.0,8.0,93,0.00,,,-99.99,,2013-12-31 16:03:00,
2013-12-31 10:10:00,0.0,-1.0,-100.00,WNW,300,2.0,7.0,93,0.00,,,-99.99,,2013-12-31 16:10:00,
2013-12-31 10:43:00,0.0,-1.0,-100.00,WNW,300,2.0,7.0,93,0.00,,,-99.99,,2013-12-31 16:43:00,
2013-12-31 10:53:00,0.0,-1.0,-100.00,WNW,300,2.0,7.0,93,0.00,,,-99.99,,2013-12-31 16:53:00,
2013-12-31 11:02:00,0.0,-1.0,-100.00,WNW,300,2.0,7.0,93,0.00,,,-99.99,,2013-12-31 17:02:00,
2013-12-31 11:10:00,2.0,-1.0,-100.00,West,265,3.0,9.0,89,0.00,,,-99.99,,2013-12-31 17:10:00,
2013-12-31 11:42:00,2.0,-1.0,-100.00,West,265,3.0,9.0,89,0.00,,,-99.99,,2013-12-31 17:42:00,
2013-12-31 11:53:00,2.0,-1.0,-100.00,West,265,3.0,9.0,89,0.00,,,-99.99,,2013-12-31 17:53:00,
2013-12-31 12:02:00,2.0,-1.0,-100.00,West,265,3.0,9.0,89,0.00,,,-99.99,,2013-12-31 18:02:00,
2013-12-31 12:42:00,2.0,-1.0,-100.00,WNW,295,3.0,9.0,85,0.00,,,-99.99,,2013-12-31 18:42:00,
2013-12-31 12:53:00,2.0,-1.0,-100.00,WNW,295,3.0,9.0,85,0.00,,,-99.99,,2013-12-31 18:53:00,
2013-12-31 13:01:00,2.0,-1.0,-100.00,WNW,295,3.0,9.0,85,0.00,,,-99.99,,2013-12-31 19:01:00,
2013-12-31 13:43:00,3.0,-1.0,-100.00,NW,310,4.0,9.0,81,0.00,,,-99.99,,2013-12-31 19:43:00,
2013-12-31 13:53:00,3.0,-1.0,-100.00,NW,310,4.0,9.0,81,0.00,,,-99.99,,2013-12-31 19:53:00,
2013-12-31 14:02:00,3.0,-1.0,-100.00,NW,310,4.0,9.0,81,0.00,,,-99.99,,2013-12-31 20:02:00,
2013-12-31 14:11:00,4.0,-3.0,-100.00,WNW,285,4.0,8.0,74,0.00,,,-99.99,,2013-12-31 20:11:00,
2013-12-31 14:42:00,4.0,-3.0,-100.00,WNW,285,4.0,8.0,74,0.00,,,-99.99,,2013-12-31 20:42:00,
2013-12-31 14:53:00,4.0,-3.0,-100.00,WNW,285,4.0,8.0,74,0.00,,,-99.99,,2013-12-31 20:53:00,
2013-12-31 15:02:00,4.0,-3.0,-100.00,WNW,285,4.0,8.0,74,0.00,,,-99.99,,2013-12-31 21:02:00,
2013-12-31 15:10:00,3.0,-5.0,-100.00,West,275,6.0,9.0,69,0.00,,,-99.99,,2013-12-31 21:10:00,
2013-12-31 15:43:00,3.0,-5.0,-100.00,West,275,6.0,9.0,69,0.00,,,-99.99,,2013-12-31 21:43:00,
2013-12-31 15:53:00,3.0,-5.0,-100.00,West,275,6.0,9.0,69,0.00,,,-99.99,,2013-12-31 21:53:00,
2013-12-31 16:03:00,3.0,-5.0,-100.00,West,275,6.0,9.0,69,0.00,,,-99.99,,2013-12-31 22:03:00,
2013-12-31 16:10:00,3.0,-4.0,-100.00,WNW,300,2.0,6.0,70,0.00,,,-99.99,,2013-12-31 22:10:00,
2013-12-31 16:43:00,3.0,-4.0,-100.00,WNW,300,2.0,6.0,70,0.00,,,-99.99,,2013-12-31 22:43:00,
2013-12-31 16:53:00,3.0,-4.0,-100.00,WNW,300,2.0,6.0,70,0.00,,,-99.99,,2013-12-31 22:53:00,
2013-12-31 17:02:00,3.0,-4.0,-100.00,WNW,300,2.0,6.0,70,0.00,,,-99.99,,2013-12-31 23:02:00,
2013-12-31 17:43:00,2.0,-6.0,-100.00,WNW,295,2.0,9.0,68,0.00,,,-99.99,,2013-12-31 23:43:00,
2013-12-31 17:53:00,2.0,-6.0,-100.00,WNW,295,2.0,9.0,68,0.00,,,-99.99,,2013-12-31 23:53:00,
2013-12-31 18:02:00,2.0,-6.0,-100.00,WNW,295,2.0,9.0,68,0.00,,,-99.99,,2014-01-01 00:02:00,
2013-12-31 18:10:00,2.0,-6.0,-100.00,NW,320,4.0,6.0,68,0.00,,,-99.99,,2014-01-01 00:10:00,
2013-12-31 18:42:00,2.0,-6.0,-100.00,NW,320,4.0,6.0,68,0.00,,,-99.99,,2014-01-01 00:42:00,
2013-12-31 18:52:00,2.0,-6.0,-100.00,NW,320,4.0,6.0,68,0.00,,,-99.99,,2014-01-01 00:52:00,
2013-12-31 19:02:00,2.0,-6.0,-100.00,NW,320,4.0,6.0,68,0.00,,,-99.99,,2014-01-01 01:02:00,
2013-12-31 19:10:00,1.0,-7.0,-100.00,NNE,25,2.0,6.0,67,0.00,,,-99.99,,2014-01-01 01:10:00,
2013-12-31 19:42:00,1.0,-7.0,-100.00,NNE,25,2.0,6.0,67,0.00,,,-99.99,,2014-01-01 01:42:00,
2013-12-31 19:52:00,1.0,-7.0,-100.00,NNE,25,2.0,6.0,67,0.00,,,-99.99,,2014-01-01 01:52:00,
2013-12-31 20:02:00,1.0,-7.0,-100.00,NNE,25,2.0,6.0,67,0.00,,,-99.99,,2014-01-01 02:02:00,
2013-12-31 20:11:00,-1.0,-9.0,-100.00,NNE,30,2.0,5.0,67,0.00,,,-99.99,,2014-01-01 02:11:00,
2013-12-31 20:42:00,-1.0,-9.0,-100.00,NNE,30,2.0,5.0,67,0.00,,,-99.99,,2014-01-01 02:42:00,
2013-12-31 20:52:00,-1.0,-9.0,-100.00,NNE,30,2.0,5.0,67,0.00,,,-99.99,,2014-01-01 02:52:00,
2013-12-31 21:02:00,-1.0,-9.0,-100.00,NNE,30,2.0,5.0,67,0.00,,,-99.99,,2014-01-01 03:02:00,
2013-12-31 21:44:00,-3.0,-11.0,-100.00,North,10,2.0,6.0,70,0.00,,,-99.99,,2014-01-01 03:44:00,
2013-12-31 21:53:00,-3.0,-11.0,-100.00,North,10,2.0,6.0,70,0.00,,,-99.99,,2014-01-01 03:53:00,
2013-12-31 22:03:00,-3.0,-11.0,-100.00,North,10,2.0,6.0,70,0.00,,,-99.99,,2014-01-01 04:03:00,
2013-12-31 22:43:00,-5.0,-11.0,-100.00,East,90,1.0,4.0,75,0.00,,,-99.99,,2014-01-01 04:43:00,
2013-12-31 22:53:00,-5.0,-11.0,-100.00,East,90,1.0,4.0,75,0.00,,,-99.99,,2014-01-01 04:53:00,
2013-12-31 23:02:00,-5.0,-11.0,-100.00,East,90,1.0,4.0,75,0.00,,,-99.99,,2014-01-01 05:02:00,
2013-12-31 23:43:00,-7.0,-12.0,-100.00,East,85,4.0,6.0,79,0.00,,,-99.99,,2014-01-01 05:43:00,
2013-12-31 23:53:00,-7.0,-12.0,-100.00,East,85,4.0,6.0,79,0.00,,,-99.99,,2014-01-01 05:53:00,